Retour au catalogue

DELTA 2 DEB

LostHEO
NORAD 28548·DEBRIS·🇺🇸 United States

Lancé Mar 25, 2000 depuis Vandenberg Space Force Base

Loading…

Prochains Passages (prochaines 24 heures)

TLE

PériméSource: Space-Track

Époque: Jun 11, 2014, 22:29 UTC

1 28548U 00017D   14162.93714847  .00000322  00000-0  00000+0 0  9998
2 28548  92.9968 237.7913 7278164  73.9996 349.6380  1.68681765 61909

Suivez DELTA 2 DEB en temps réel avec AllMySat

Download on the App Store